CW3660 Weather Reports


Display with metric or nautical units.
time (UTC)temp
F
wind
direction
speed
MPH
gust
MPH
rain 1hr
in
rain 24hr
in
rain mn
in
humidity
%
barometer
mb
20260905023017 69 0.0 2.0 0.00 0.00 0.00 73 1008.9
20260905022017 69 0.0 2.0 0.00 0.00 0.00 72 1009.0
20260905021017 70 0.0 0.0 0.00 0.00 0.00 69 1009.1
20260905020017 70 0.0 0.0 0.00 0.00 0.00 69 1009.1
20260905015037 71 0.0 1.0 0.00 0.00 0.00 68 1009.1
20260905014017 71 0.0 1.0 0.00 0.00 0.00 66 1009.2
20260905013017 72 0.0 2.0 0.00 0.00 0.00 66 1009.3
20260905012017 72 0.0 3.0 0.00 0.00 0.00 64 1009.3
20260905011017 72 0 1.0 3.0 0.00 0.00 0.00 63 1009.2
20260905010017 73 0 2.0 4.0 0.00 0.00 0.00 63 1009.1
20260905005016 73 0 2.0 7.0 0.00 0.00 0.00 63 1009.1
20260905004037 73 0 2.0 4.0 0.00 0.00 0.00 62 1008.9
20260905003017 74 0 1.0 3.0 0.00 0.00 0.00 62 1009.0
20260905002017 74 0 1.0 3.0 0.00 0.00 0.00 61 1009.1
20260905001037 75 0 1.0 4.0 0.00 0.00 0.00 60 1008.9
20260905000017 75 338 2.0 5.0 0.00 0.00 0.00 59 1008.8
20260904235016 76 338 2.0 4.0 0.00 0.00 0.00 58 1008.7
20260904234017 76 338 2.0 5.0 0.00 0.00 0.00 58 1008.6
20260904233036 76 0 2.0 6.0 0.00 0.00 0.00 57 1008.5
20260904232017 77 0 3.0 6.0 0.00 0.00 0.00 56 1008.3
20260904231017 77 338 3.0 6.0 0.00 0.00 0.00 56 1008.2
20260904230017 78 338 2.0 6.0 0.00 0.00 0.00 56 1008.1
20260904225017 78 338 2.0 5.0 0.00 0.00 0.00 57 1008.2
20260904224016 79 0 2.0 5.0 0.00 0.00 0.00 56 1008.2
20260904223037 79 0 2.0 5.0 0.00 0.00 0.00 55 1008.2
20260904222016 79 0 2.0 6.0 0.00 0.00 0.00 54 1008.1
20260904221036 80 23 2.0 6.0 0.00 0.00 0.00 54 1008.1
20260904220016 80 0 2.0 7.0 0.00 0.00 0.00 53 1008.0
20260904215017 80 338 3.0 7.0 0.00 0.00 0.00 52 1008.0
20260904214016 80 338 3.0 8.0 0.00 0.00 0.00 52 1008.0
20260904213016 80 338 2.0 6.0 0.00 0.00 0.00 54 1008.1
20260904212016 80 0 3.0 8.0 0.00 0.00 0.00 54 1008.0
20260904211016 80 338 3.0 9.0 0.00 0.00 0.00 53 1008.1
20260904210016 81 338 4.0 9.0 0.00 0.00 0.00 53 1008.1
20260904205036 81 338 5.0 9.0 0.00 0.00 0.00 51 1008.1
20260904204016 82 315 3.0 9.0 0.00 0.00 0.00 49 1008.1
20260904203016 83 338 6.0 14.0 0.00 0.00 0.00 48 1008.1
20260904202016 84 338 4.0 8.0 0.00 0.00 0.00 46 1008.1
20260904201017 84 338 4.0 10.0 0.00 0.00 0.00 46 1008.1
20260904200016 84 315 3.0 8.0 0.00 0.00 0.00 44 1007.9
20260904195016 84 315 3.0 7.0 0.00 0.00 0.00 44 1007.9
20260904194016 84 315 4.0 9.0 0.00 0.00 0.00 43 1007.8
20260904193016 84 338 5.0 12.0 0.00 0.00 0.00 42 1007.8
20260904192056 85 0 4.0 12.0 0.00 0.00 0.00 43 1007.7
20260904191016 84 315 3.0 10.0 0.00 0.00 0.00 46 1007.9
20260904190016 84 315 3.0 10.0 0.00 0.00 0.00 44 1008.0
20260904185016 84 270 3.0 9.0 0.00 0.00 0.00 46 1008.2
20260904184016 83 315 4.0 13.0 0.00 0.00 0.00 51 1008.2
20260904183016 82 315 4.0 12.0 0.00 0.00 0.00 49 1008.2
20260904182016 82 338 4.0 10.0 0.00 0.00 0.00 51 1008.2
20260904181016 83 0 4.0 11.0 0.00 0.00 0.00 50 1008.2
20260904180016 83 0 4.0 9.0 0.00 0.00 0.00 51 1008.2
20260904175016 82 338 3.0 10.0 0.00 0.00 0.00 54 1008.3
20260904174016 81 315 2.0 7.0 0.00 0.00 0.00 56 1008.2
20260904173036 82 338 3.0 9.0 0.00 0.00 0.00 56 1008.2
20260904171016 84 338 3.0 7.0 0.00 0.00 0.00 56 1008.5
20260904170016 83 315 2.0 6.0 0.00 0.00 0.00 59 1008.6
20260904165016 83 315 2.0 6.0 0.00 0.00 0.00 57 1008.6
20260904164016 82 315 2.0 6.0 0.00 0.00 0.00 59 1008.6
20260904163016 82 0 2.0 8.0 0.00 0.00 0.00 62 1008.7
20260904162016 81 293 2.0 5.0 0.00 0.00 0.00 63 1008.8
20260904161016 80 0 4.0 10.0 0.00 0.00 0.00 64 1008.8
20260904160016 80 315 3.0 9.0 0.00 0.00 0.00 64 1009.1
20260904155016 80 315 4.0 12.0 0.00 0.00 0.00 63 1009.1
20260904154016 79 338 5.0 11.0 0.00 0.00 0.00 64 1009.3
20260904153016 79 0 5.0 12.0 0.00 0.00 0.00 65 1009.3
20260904152016 79 338 5.0 13.0 0.00 0.00 0.00 64 1009.4
20260904151016 79 338 4.0 11.0 0.00 0.00 0.00 65 1009.5
20260904150036 79 315 3.0 10.0 0.00 0.00 0.00 67 1009.4
20260904145016 78 338 3.0 8.0 0.00 0.00 0.00 69 1009.5
20260904144036 77 0 3.0 8.0 0.00 0.00 0.00 72 1009.5
20260904143016 77 23 1.0 7.0 0.00 0.00 0.00 77 1009.6
20260904142036 76 338 2.0 6.0 0.00 0.00 0.00 78 1009.7
20260904141016 75 0.0 3.0 0.00 0.00 0.00 81 1009.7
20260904140016 73 293 1.0 3.0 0.00 0.00 0.00 86 1009.9
20260904135015 72 0 1.0 4.0 0.00 0.00 0.00 90 1009.8
20260904134015 71 315 1.0 3.0 0.00 0.00 0.00 92 1009.7
20260904133035 70 0.0 3.0 0.00 0.00 0.00 94 1009.9
20260904132015 69 248 1.0 2.0 0.00 0.00 0.00 96 1010.0
20260904131016 68 248 1.0 4.0 0.00 0.00 0.00 96 1009.9
20260904130016 67 315 1.0 3.0 0.00 0.00 0.00 96 1009.9
20260904125016 66 315 1.0 4.0 0.00 0.00 0.00 96 1010.0
20260904124015 66 0.0 3.0 0.00 0.00 0.00 96 1009.9
20260904123016 65 23 1.0 5.0 0.00 0.00 0.00 96 1009.9
20260904122016 65 23 2.0 5.0 0.00 0.00 0.00 96 1010.0
20260904121015 65 0.0 3.0 0.00 0.00 0.00 96 1010.1
20260904120015 65 0 1.0 3.0 0.00 0.00 0.00 96 1009.9
20260904115015 65 0 1.0 4.0 0.00 0.00 0.00 96 1009.9
20260904114015 65 0.0 3.0 0.00 0.00 0.00 96 1009.8
20260904113036 64 45 1.0 4.0 0.00 0.00 0.00 96 1009.8
20260904112016 65 0.0 2.0 0.00 0.00 0.00 96 1009.9
20260904111015 64 45 1.0 3.0 0.00 0.00 0.00 96 1009.9
20260904110015 64 0.0 2.0 0.00 0.01 0.00 96 1009.9
20260904105035 64 0.0 0.0 0.00 0.01 0.00 96 1009.9
20260904104035 64 0.0 2.0 0.00 0.01 0.00 96 1009.8
20260904103035 65 0.0 2.0 0.00 0.01 0.00 96 1009.6
20260904102035 65 0.0 1.0 0.00 0.01 0.00 96 1009.5
20260904101015 65 45 1.0 3.0 0.00 0.02 0.00 96 1009.3
20260904100015 65 0.0 1.0 0.00 0.03 0.00 96 1009.2
20260904095015 65 0.0 0.0 0.00 0.03 0.00 96 1009.3
20260904094035 65 0.0 0.0 0.00 0.05 0.00 96 1009.3
20260904093015 65 0.0 1.0 0.00 0.05 0.00 96 1009.4
20260904092015 65 0.0 1.0 0.00 0.06 0.00 96 1009.4
20260904091037 65 0.0 0.0 0.00 0.08 0.00 96 1009.4
20260904090037 65 0.0 1.0 0.00 0.08 0.00 96 1009.4
20260904085017 65 0.0 2.0 0.00 0.08 0.00 96 1009.3
20260904084017 65 0.0 1.0 0.00 0.08 0.00 96 1009.4
20260904083017 65 0.0 1.0 0.00 0.08 0.00 96 1009.5
20260904082017 65 0.0 2.0 0.00 0.08 0.00 96 1009.5
20260904081037 65 0.0 0.0 0.00 0.09 0.00 96 1009.8
20260904080017 65 0.0 0.0 0.00 0.12 0.00 96 1009.8
20260904075017 65 0.0 2.0 0.00 0.13 0.00 96 1009.8
20260904074017 65 0.0 2.0 0.00 0.13 0.00 96 1009.8
20260904073017 65 0.0 2.0 0.00 0.13 0.00 96 1009.7
20260904072037 65 0.0 2.0 0.00 0.13 0.00 96 1009.8
20260904071017 65 0.0 1.0 0.00 0.13 0.00 95 1009.7
20260904070017 65 158 1.0 2.0 0.00 0.13 0.00 95 1009.8
20260904065037 65 0.0 2.0 0.00 0.13 0.00 95 1009.7
20260904064037 65 0.0 1.0 0.00 0.13 0.00 95 1009.8
20260904063017 65 0.0 1.0 0.00 0.13 0.00 95 1010.1
20260904062017 65 158 1.0 2.0 0.00 0.13 0.00 95 1010.1
20260904061037 65 0.0 2.0 0.00 0.13 0.00 95 1010.2
20260904060017 65 0.0 2.0 0.00 0.13 0.00 95 1010.3
20260904055017 65 158 1.0 3.0 0.00 0.13 0.00 95 1010.6
20260904054017 65 158 1.0 3.0 0.00 0.13 0.00 95 1010.7
20260904053017 65 135 1.0 3.0 0.00 0.13 0.00 95 1010.9
20260904052017 66 135 1.0 3.0 0.00 0.13 0.00 94 1010.8
20260904051017 66 0.0 2.0 0.00 0.13 0.00 94 1010.9
20260904050017 66 113 1.0 4.0 0.00 0.13 0.00 94 1010.8
20260904045017 66 0.0 2.0 0.00 0.13 0.00 94 1010.9
20260904044037 66 0.0 2.0 0.00 0.13 0.00 93 1011.1
20260904043017 66 0.0 2.0 0.00 0.13 0.00 93 1011.1
20260904042016 66 0.0 2.0 0.00 0.13 0.00 93 1011.1
20260904041017 67 0.0 2.0 0.00 0.13 0.00 93 1011.1
20260904040017 67 0.0 1.0 0.00 0.13 0.13 93 1011.4
20260904035037 67 158 1.0 3.0 0.00 0.13 0.13 93 1011.2
20260904034017 68 0.0 2.0 0.00 0.13 0.13 92 1011.3
20260904033017 68 0.0 2.0 0.00 0.13 0.13 92 1011.2
20260904032017 68 0.0 1.0 0.00 0.13 0.13 92 1011.3
20260904031017 68 0.0 1.0 0.00 0.13 0.13 92 1011.2
20260904030017 68 0.0 1.0 0.00 0.13 0.13 92 1011.2
20260904025017 69 158 1.0 3.0 0.00 0.13 0.13 92 1011.2
20260904024017 69 0.0 2.0 0.00 0.13 0.13 91 1011.4